TimeHST,TemperatureF,Dew PointF,Humidity,Sea Level PressureIn,VisibilityMPH,Wind Direction,Wind SpeedMPH,Gust SpeedMPH,PrecipitationIn,Events,Conditions,WindDirDegrees,DateUTC
12:58 AM,73.4,64.4,73,29.98,10.0,WSW,3.5,-,N/A,,Overcast,250,2013-10-06 10:58:00
1:58 AM,69.8,64.4,83,29.97,10.0,NW,2.3,-,N/A,,Partly Cloudy,320,2013-10-06 11:58:00
2:58 AM,68.0,64.4,88,29.96,10.0,NW,3.5,-,N/A,,Partly Cloudy,310,2013-10-06 12:58:00
3:58 AM,68.0,64.4,88,29.94,10.0,NW,4.6,-,N/A,,Clear,310,2013-10-06 13:58:00
4:58 AM,69.8,64.4,83,29.96,10.0,West,3.5,-,N/A,,Clear,280,2013-10-06 14:58:00
5:58 AM,69.8,64.4,83,29.96,10.0,West,2.3,-,N/A,,Clear,280,2013-10-06 15:58:00
6:58 AM,69.8,64.4,83,29.96,10.0,NW,1.2,-,N/A,,Scattered Clouds,310,2013-10-06 16:58:00
7:58 AM,73.4,66.2,78,29.98,10.0,NNW,3.5,-,N/A,,Clear,330,2013-10-06 17:58:00
8:43 AM,75.2,66.2,73,30.02,10.0,NE,5.8,-,N/A,,Scattered Clouds,50,2013-10-06 18:43:00
8:48 AM,75.2,66.2,73,30.02,10.0,ENE,6.9,-,N/A,,Mostly Cloudy,70,2013-10-06 18:48:00
8:53 AM,75.2,66.2,73,30.03,10.0,ENE,9.2,-,N/A,,Scattered Clouds,60,2013-10-06 18:53:00
8:58 AM,75.2,66.2,73,30.00,10.0,East,5.8,-,N/A,,Scattered Clouds,90,2013-10-06 18:58:00
9:58 AM,78.8,66.2,65,30.00,10.0,East,3.5,-,N/A,,Mostly Cloudy,90,2013-10-06 19:58:00
10:28 AM,75.2,66.2,73,30.03,10.0,East,5.8,-,N/A,,Mostly Cloudy,100,2013-10-06 20:28:00
10:58 AM,78.8,66.2,65,30.00,10.0,ENE,10.4,-,0.00,,Mostly Cloudy,60,2013-10-06 20:58:00
11:58 AM,78.8,66.2,65,29.98,10.0,ENE,9.2,-,N/A,,Scattered Clouds,70,2013-10-06 21:58:00
12:33 PM,78.8,66.2,65,30.00,10.0,East,11.5,-,N/A,,Mostly Cloudy,80,2013-10-06 22:33:00
12:38 PM,78.8,66.2,65,30.00,10.0,ENE,11.5,-,N/A,,Scattered Clouds,60,2013-10-06 22:38:00
12:58 PM,78.8,64.4,61,29.97,10.0,East,11.5,-,N/A,,Mostly Cloudy,100,2013-10-06 22:58:00
1:28 PM,78.8,66.2,65,29.99,10.0,East,12.7,-,N/A,,Mostly Cloudy,90,2013-10-06 23:28:00
1:30 PM,77.0,64.4,65,29.99,10.0,East,12.7,-,N/A,,Light Drizzle,90,2013-10-06 23:30:00
1:31 PM,77.0,64.4,65,29.99,10.0,East,12.7,-,N/A,,Mostly Cloudy,90,2013-10-06 23:31:00
1:58 PM,75.2,66.2,73,29.96,10.0,NE,6.9,-,0.00,,Overcast,50,2013-10-06 23:58:00
2:58 PM,75.2,66.2,73,29.95,7.0,East,8.1,-,0.00,,Mostly Cloudy,90,2013-10-07 00:58:00
3:58 PM,73.4,68.0,83,29.93,10.0,Variable,2.3,-,0.00,,Clear,0,2013-10-07 01:58:00
4:58 PM,75.2,66.2,73,29.94,10.0,East,6.9,-,N/A,,Mostly Cloudy,90,2013-10-07 02:58:00
5:58 PM,75.2,66.2,73,29.96,10.0,East,4.6,-,N/A,,Overcast,90,2013-10-07 03:58:00
6:35 PM,73.4,66.2,78,29.99,10.0,East,4.6,-,N/A,,Light Drizzle,90,2013-10-07 04:35:00
6:36 PM,73.4,66.2,78,29.99,10.0,East,5.8,-,N/A,,Overcast,80,2013-10-07 04:36:00
6:38 PM,73.4,66.2,78,29.99,10.0,East,4.6,-,N/A,,Light Drizzle,90,2013-10-07 04:38:00
6:39 PM,73.4,66.2,78,29.99,10.0,East,4.6,-,N/A,,Overcast,100,2013-10-07 04:39:00
6:41 PM,73.4,66.2,78,30.00,10.0,East,3.5,-,N/A,,Light Drizzle,100,2013-10-07 04:41:00
6:42 PM,73.4,66.2,78,30.00,10.0,Variable,2.3,-,N/A,,Overcast,0,2013-10-07 04:42:00
6:44 PM,73.4,66.2,78,30.00,10.0,NE,2.3,-,N/A,,Light Drizzle,40,2013-10-07 04:44:00
6:45 PM,73.4,66.2,78,30.00,10.0,Variable,3.5,-,N/A,,Mostly Cloudy,0,2013-10-07 04:45:00
6:58 PM,73.4,66.2,78,29.98,10.0,WNW,2.3,-,0.00,,Overcast,300,2013-10-07 04:58:00
7:58 PM,73.4,68.0,83,29.99,10.0,ENE,2.3,-,0.00,,Partly Cloudy,70,2013-10-07 05:58:00
8:58 PM,73.4,66.2,78,30.00,10.0,NNE,2.3,-,N/A,,Overcast,20,2013-10-07 06:58:00
9:58 PM,71.6,66.2,83,30.00,10.0,West,4.6,-,N/A,,Partly Cloudy,280,2013-10-07 07:58:00
10:58 PM,69.8,66.2,88,30.00,10.0,West,3.5,-,N/A,,Partly Cloudy,270,2013-10-07 08:58:00
11:58 PM,69.8,66.2,88,29.99,10.0,West,2.3,-,N/A,,Clear,270,2013-10-07 09:58:00